Location: Vesunti
(61.5000°N, 22.8333°E)
Time: 09:13:00
(UTC+00:00)

Cosmos 2333 - Pass Details

Date: 17 February 2020
Orbit: 833 x 863 km, 70.9° (Epoch: 03 April)

Event Time Altitude Azimuth Distance (km) Brightness Sun altitude
Exits shadow 01:58:12 77° 72° (ENE) 885 4.3 -29.5°
Drops below altitude 10° 02:03:32 10° 43° (NE) 2,489 7.5 -29.0°
Sets 02:05:59 0° 43° (NE) 3,423 8.5 -28.7°
